287  
ASUS44 KOHX 291310  
RWROHX  
MIDDLE TENNESSEE HOURLY WEATHER ROUNDUP  
NATIONAL WEATHER SERVICE NASHVILLE TN  
800 AM CDT SAT APR 29 2017  
 
NOTE: "FAIR" INDICATES FEW OR NO CLOUDS BELOW 12,000 FEET WITH  
NO SIGNIFICANT WEATHER AND/OR S TO VISIBILITY
.  
 
* THESE REPORTS ARE NOT UNDER NWS QUALITY CONTROL AND MAY NOT  
REPORT WEATHER SUCH AS PRECIPITATION AND FOG.
 
 
 
TNZ005>011-023>034-057-059-062>066-078-080-291400   
..NORTHERN MIDDLE TENNESSEE
 
 
 
CITY SKY/WX TMP DP RH WIND PRES REMARKS
 
CLARKSVILLE MOSUNNY 75 67 76 SE6 29.97R  
CROSSVILLE CLOUDY 71 64 78 S8 30.12R  
GALLATIN SUNNY 75 68 78 SE7 30.05R  
DICKSON N/A 73 68 84 S8 29.97R  
LEBANON PTSUNNY 74 67 78 SE6 30.00R  
NASHVILLE PTSUNNY 75 68 78 S12 30.01R  
PORTLAND PTSUNNY 75 68 78 S13G20 30.01R  
SMYRNA CLOUDY 74 68 81 SE6 30.02R  
SPARTA SUNNY 73 66 78 S10G17 30.04R  
SPRINGFIELD PTSUNNY 73 70 88 S6 29.99R  
WEST NASHVILLE PTSUNNY 73 68 83 S12 29.99R  

 
TNZ056-058-060-061-075>077-079-093>097-291400   
..SOUTHERN MIDDLE TENNESSEE
 
 
 
CITY SKY/WX TMP DP RH WIND PRES REMARKS
 
COLUMBIA MOSUNNY N/A N/A N/A S7 29.97S  
FAYETTEVILLE SUNNY 73 68 83 S10 30.04R  
MCMINNVILLE SUNNY 77 66 69 S7 30.05R  
MURFREESBORO CLOUDY 74 66 75 S9 30.01R  
SHELBYVILLE SUNNY 75 68 78 S10 30.03S  
TULLAHOMA SUNNY 73 64 73 S12 30.06R  
WINCHESTER SUNNY 75 66 73 SE7 30.06S  

 
 
   
..KEY TO REMARKS
 
 
VSB - VISIBILITY IN MILES  
WCI - WIND CHILL INDEX  
HX - HEAT INDEX  
 
 
 
CLICK HERE TO GO TO PREVIOUS BULLETINS.

The Nexlab TN Page Main Text Page